Weather History for KBGR - July, 2012

Change the Weather History Date:

Monday, July 16, 2012

  Actual Average Record
Temperature  
Mean Temperature 77 °F 69 °F  
Max Temperature 87 °F 80 °F 94 °F (1968)
Min Temperature 67 °F 58 °F 37 °F (1946)
Degree Days  
Heating Degree Days 0 1  
Month to date heating degree days 0 16  
Since 1 June heating degree days 121 123  
Since 1 July heating degree days 0 16  
Cooling Degree Days 12 4  
Month to date cooling degree days 108 62  
Year to date cooling degree days 168 120  
Since 1 June cooling degree days 155 114  
Growing Degree Days 26 (Base 50)    
Moisture  
Dew Point 64 °F    
Average Humidity 71    
Maximum Humidity 93    
Minimum Humidity 48    
Precipitation  
Precipitation T in 0.11 in 1.54 in (2014)
Month to date precipitation 0.21 1.71  
Year to date precipitation 21.32 21.52  
Snow  
Snow 0.00 in 0.00 in 0.00 in (2002)
Month to date snowfall 0.0 0.0  
Since 1 June snowfall 0.0 0.0  
Since 1 July snowfall 0.0 0.0  
Snow Depth 0.00 in    
Sea Level Pressure  
Sea Level Pressure 29.78 in    
Wind  
Wind Speed 4 mph (SSW)    
Max Wind Speed 15 mph    
Max Gust Speed 18 mph    
Visibility 8 miles    
Events Rain    
T = Trace of Precipitation, MM = Missing Value Source: NWS Daily Summary

Daily Weather History Graph

Daily Weather History Graph

Search for Another Location

Airport or City:

Trip Planner

Search our weather history database for the weather conditions in past years. The results will help you decide how hot, cold, wet, or windy it might be!

Date:

Astronomy

Jul. 16, 2012 Rise Set
Actual Time 5:04 AM EDT 8:17 PM EDT
Civil Twilight 4:29 AM EDT 8:52 PM EDT
Nautical Twilight 3:43 AM EDT 9:38 PM EDT
Astronomical Twilight 2:46 AM EDT 10:34 PM EDT
Moon 2:45 AM EDT (7/16) 6:19 PM EDT (7/16)
Length of Visible Light 16h 23m
Length of Day
15h 12m
Waning Crescent, 6% of the Moon is Illuminated
Jul 16
Waning Crescent
Jul 19
New
Jul 26
First Quarter
Aug 1
Full
Aug 9
Last Quarter

Hourly Weather History & Observations

Time (EDT) Temp. Heat Index Dew Point Humidity Pressure Visibility Wind Dir Wind Speed Gust Speed Precip Events Conditions
12:53 AM 66.9 °F - 64.0 °F 90% 29.86 in 10.0 mi SSE 5.8 mph - N/A   Overcast
1:53 AM 66.9 °F - 63.0 °F 87% 29.87 in 9.0 mi West 4.6 mph - N/A   Overcast
2:53 AM 66.9 °F - 64.0 °F 90% 29.84 in 9.0 mi South 3.5 mph - N/A   Overcast
3:33 AM 66.2 °F - 64.4 °F 94% 29.84 in 9.0 mi SSW 4.6 mph - N/A   Overcast
3:53 AM 66.9 °F - 64.0 °F 90% 29.82 in 9.0 mi South 3.5 mph - N/A   Overcast
4:53 AM 66.9 °F - 64.0 °F 90% 29.81 in 7.0 mi Calm Calm - N/A   Overcast
5:32 AM 66.2 °F - 64.4 °F 94% 29.82 in 3.0 mi South 4.6 mph - N/A   Overcast
5:41 AM 66.2 °F - 64.4 °F 94% 29.82 in 5.0 mi South 3.5 mph - N/A   Overcast
5:53 AM 66.9 °F - 64.0 °F 90% 29.81 in 5.0 mi South 3.5 mph - N/A   Overcast
6:00 AM 66.2 °F - 64.4 °F 94% 29.82 in 3.0 mi Calm Calm - N/A   Overcast
6:27 AM 66.2 °F - 64.4 °F 94% 29.81 in 2.0 mi SE 3.5 mph - N/A   Overcast
6:53 AM 66.9 °F - 64.9 °F 93% 29.81 in 2.0 mi Calm Calm - N/A   Overcast
7:16 AM 68.0 °F - 64.4 °F 88% 29.82 in 3.0 mi Calm Calm - N/A   Overcast
7:53 AM 71.1 °F - 64.9 °F 81% 29.81 in 7.0 mi Calm Calm - N/A   Mostly Cloudy
8:53 AM 73.9 °F - 66.0 °F 76% 29.80 in 8.0 mi North 5.8 mph - N/A   Mostly Cloudy
9:53 AM 75.0 °F - 66.0 °F 73% 29.79 in 8.0 mi Variable 3.5 mph - N/A   Scattered Clouds
10:53 AM 79.0 °F - 64.9 °F 62% 29.77 in 10.0 mi Variable 3.5 mph - N/A   Scattered Clouds
11:53 AM 82.0 °F 84.1 °F 66.0 °F 58% 29.76 in 10.0 mi NW 4.6 mph - N/A   Scattered Clouds
12:53 PM 84.0 °F 86.3 °F 66.0 °F 55% 29.75 in 10.0 mi NW 6.9 mph - N/A   Scattered Clouds
1:53 PM 86.0 °F 87.6 °F 64.9 °F 49% 29.74 in 10.0 mi Variable 3.5 mph - N/A   Mostly Cloudy
2:53 PM 86.0 °F 87.3 °F 64.0 °F 48% 29.73 in 10.0 mi NNE 6.9 mph - N/A   Scattered Clouds
3:53 PM 84.9 °F 85.4 °F 62.1 °F 46% 29.71 in 10.0 mi Calm Calm - N/A   Scattered Clouds
4:53 PM 84.9 °F 86.1 °F 64.0 °F 49% 29.70 in 10.0 mi West 3.5 mph - N/A   Scattered Clouds
5:53 PM 84.0 °F 85.4 °F 64.0 °F 51% 29.70 in 10.0 mi WNW 4.6 mph - N/A   Mostly Cloudy
6:53 PM 79.0 °F - 66.0 °F 64% 29.71 in 10.0 mi South 10.4 mph - N/A   Mostly Cloudy
7:53 PM 75.0 °F - 64.0 °F 69% 29.72 in 10.0 mi South 8.1 mph - N/A   Mostly Cloudy
8:53 PM 72.0 °F - 62.1 °F 71% 29.74 in 10.0 mi SSW 5.8 mph - N/A   Scattered Clouds
9:53 PM 71.1 °F - 63.0 °F 75% 29.75 in 10.0 mi SSE 5.8 mph - N/A   Mostly Cloudy
10:53 PM 70.0 °F - 63.0 °F 78% 29.75 in 10.0 mi South 4.6 mph - N/A   Mostly Cloudy
11:53 PM 69.1 °F - 64.9 °F 87% 29.75 in 10.0 mi South 5.8 mph - 0.00 in Rain Light Rain